Regional Weather Roundup
Issued by NWS Memphis, TN

Home | Current Version | Previous Version | Text Only | Print | Product List | Glossary On
Versions: 1 2 3 4 5 6 7 8 9 10 11 12 13 14 15 16 17 18 19 20 21 22 23 24 25 26 27 28 29 30 31 32 33 34 35 36 37 38 39 40 41 42 43 44 45 46 47 48 49 50
941
ASUS44 KMEG 180810
RWRMEG
MEMPHIS CWA HOURLY WEATHER ROUNDUP
NATIONAL WEATHER SERVICE MEMPHIS TN
300 AM CDT WED JUL 18 2018

...WEST TENNESSEE...

CITY           SKY/WX    TMP DP  RH WIND       PRES   REMARKS
MEMPHIS INTL   FAIR      78  70  76 CALM      29.96F
NWS MEMPHIS      N/A     75 N/A N/A MISG        N/A
JACKSON        FAIR      76  76 100 CALM      29.99S FOG
COVINGTON      MOCLDY    77  75  94 NW3       29.98R
SOMERVILLE     CLEAR     75  73  94 CALM      29.96F
LEXINGTON      PTCLDY    75  73  94 CALM      29.99S
SELMER         CLOUDY    73  72  94 CALM      29.98S
DYERSBURG      FAIR      78  74  87 NE5       29.99F
PARIS          CLEAR     73  72  94 CALM      30.01S
HUNTINGDON     PTCLDY    75  72  88 NE6       29.99S


...EASTERN ARKANSAS...

CITY           SKY/WX    TMP DP  RH WIND       PRES   REMARKS
JONESBORO      FAIR      80  78  94 NE8       29.97S
WEST MEMPHIS   FAIR      76  75  97 CALM      29.95F
BATESVILLE     CLEAR     73  72  96 NW3       30.00F FOG
NEWPORT        FAIR      75  74  96 NW3       29.98S
WALNUT RIDGE     N/A     79  76  90 NE6       29.98F
BLYTHEVILLE    FAIR      80  74  81 E3        29.98S
SEARCY         FAIR      74  74 100 CALM      29.97F
STUTTGART      FAIR      76  73  91 E5        29.97F
PINE BLUFF     FAIR      75  73  93 CALM      29.98S
MONTICELLO     FAIR      77  77 100 CALM      29.96F FOG


...NORTH MISSISSIPPI...

CITY           SKY/WX    TMP DP  RH WIND       PRES   REMARKS
TUPELO         FAIR      75  72  90 CALM      29.96S
OXFORD         FAIR      72  70  94 CALM      29.99R
TUNICA           N/A     77  72  83 CALM      29.97S
CLARKSDALE     CLEAR     77  77 100 SW6       29.97S
CORINTH        FAIR      73  73 100 CALM      29.98R FOG
GREENWOOD      FAIR      75  73  93 CALM      29.97S
COLUMBUS       FAIR      73  73  97 CALM      29.96S
STARKVILLE     FAIR      72  72 100 CALM      29.98S
GOLDEN TRIANGL FAIR      74  73  97 CALM      29.97S


...SOUTHEAST MISSOURI...

CITY           SKY/WX    TMP DP  RH WIND       PRES   REMARKS
KENNETT        FAIR      79  75  89 NE8       29.97F
WEST PLAINS    MOCLDY    77  69  76 CALM      30.05F
POPLAR BLUFF   FAIR      77  73  87 NE3       30.00S
CAPE GIRARDEAU FAIR      77  67  71 CALM      30.02R


...NORTHWEST ALABAMA...

CITY           SKY/WX    TMP DP  RH WIND       PRES   REMARKS


...MIDDLE TENNESSEE...

CITY           SKY/WX    TMP DP  RH WIND       PRES   REMARKS
NASHVILLE      FAIR      76  67  73 N5        30.00S
CLARKSVILLE    FAIR      72  67  84 NE5       30.01S
DICKSON        MOSUNNY   72  70  94 CALM      30.01S
COLUMBIA       PTCLDY    75  75 100 CALM      29.98S FOG
LEWISBURG      SUNNY     72  72 100 CALM      29.99R


...WESTERN KENTUCKY...

CITY           SKY/WX    TMP DP  RH WIND       PRES   REMARKS
PADUCAH        FAIR      75  70  84 NE3       30.01S
FORT CAMPBELL  FAIR      71  69  95 N3        30.01S


...CENTRAL ARKANSAS...

CITY           SKY/WX    TMP DP  RH WIND       PRES   REMARKS
LITTLE ROCK    CLOUDY    74  74 100 CALM      29.97F


SKY/WX REPORTED AS FAIR MEANS FEW OR NO CLOUDS BELOW
12 THOUSAND FEET.





USA.gov is the U.S. government's official web portal to all federal, state and local government web resources and services.